Simultaneous Nadir Overpasses (SNOs) Predictions

Prediction of SNOs between NOAA-15 and METOP-C Satellite Orbit:

Table of predicted SNOs for the next 14.0 days since TLE Epoch: 12/5/2021
Index Date (NOAA-15) Time (NOAA-15) Lat,Lon (NOAA-15) SZA (NOAA-15 ) Date (METOP-C) Time (METOP-C) Lat,Lon (METOP-C) SZA (METOP-C ) Distance(km) Time Diff (sec)
1 12/18/2021 16:00:30 -80.97, 159.30 73.65 12/18/2021 15:59:22 -80.96, 156.31 73.97 52.28 68
2 12/18/2021 16:51:06 81.03, -34.73 106.27 12/18/2021 16:49:59 81.03, -34.73 106.25 0.29 67
3 12/18/2021 17:41:36 -81.03, 132.61 73.73 12/18/2021 17:40:39 -81.03, 132.65 73.75 0.68 57
4 12/18/2021 18:32:08 81.03, -59.97 106.28 12/18/2021 18:31:20 81.04, -59.85 106.27 2.21 48
5 12/18/2021 19:22:38 -81.03, 107.37 73.73 12/18/2021 19:22:00 -81.04, 107.52 73.72 2.72 38
6 12/18/2021 20:13:10 81.03, -85.21 106.28 12/18/2021 20:12:42 81.03, -85.35 106.26 2.30 28
7 12/18/2021 21:03:40 -81.03, 82.14 73.73 12/18/2021 21:03:22 -81.03, 82.03 73.74 1.88 18
8 12/18/2021 21:54:12 81.03,-110.46 106.28 12/18/2021 21:54:03 81.04,-110.47 106.28 1.25 9
9 12/18/2021 22:44:42 -81.03, 56.90 73.73 12/18/2021 22:44:43 -81.04, 56.91 73.72 1.35 1
10 12/18/2021 23:35:15 81.04,-136.07 106.26 12/18/2021 23:35:25 81.03,-135.96 106.27 2.16 10
11 12/19/2021 00:25:45 -81.04, 31.30 73.75 12/19/2021 00:26:05 -81.03, 31.41 73.73 2.25 20
12 12/19/2021 01:16:16 81.03,-160.94 106.28 12/19/2021 01:16:46 81.04,-161.09 106.29 3.05 30
13 12/19/2021 02:06:47 -81.04, 6.06 73.74 12/19/2021 02:07:27 -81.03, 5.92 73.75 2.91 40
14 12/19/2021 02:57:18 81.04, 173.45 106.26 12/19/2021 02:58:07 81.04, 173.42 106.27 0.88 49



Historial Predications of SNOs between NOAA-15 and METOP-C
